Wheeling, WV

12:27 PM EDT on March 28, 2017 (GMT -0400)
Wheeling-Ohio County

Weather History for KHLG - October, 2013

Change the Weather History Date:

Thursday, October 24, 2013

  Actual Average Record
Temperature  
Mean Temperature 39 °F 51 °F  
Max Temperature 44 °F 60 °F 78 °F (2012)
Min Temperature 33 °F 42 °F 28 °F (2003)
Degree Days  
Heating Degree Days 26 14  
Month to date heating degree days 193 263  
Since 1 July heating degree days 317 364  
Cooling Degree Days 0    
Month to date cooling degree days 35  
Year to date cooling degree days 740  
Moisture  
Dew Point 30 °F    
Average Humidity 71    
Maximum Humidity 92    
Minimum Humidity 49    
Precipitation  
Precipitation 0.01 in 0.08 in 0.86 in (2005)
Month to date precipitation 2.15 2.00  
Sea Level Pressure  
Sea Level Pressure 30.06 in    
Wind  
Wind Speed 8 mph (WSW)    
Max Wind Speed 18 mph    
Max Gust Speed 28 mph    
Visibility 10 miles    
Events      
T = Trace of Precipitation, MM = Missing Value Source: NWS Daily Summary

Daily Weather History Graph

Daily Weather History Graph

Search for Another Location

Airport or City:

Trip Planner

Search our weather history database for the weather conditions in past years. The results will help you decide how hot, cold, wet, or windy it might be!

Date:

Astronomy

Oct. 24, 2013 Rise Set
Actual Time 7:43 AM EDT 6:29 PM EDT
Civil Twilight 7:15 AM EDT 6:57 PM EDT
Nautical Twilight 6:43 AM EDT 7:29 PM EDT
Astronomical Twilight 6:12 AM EDT 8:00 PM EDT
Moon 10:52 PM EDT (10/24) 12:43 PM EDT (10/24)
Length of Visible Light 11h 41m
Length of Day
10h 46m
Waning Gibbous, 71% of the Moon is Illuminated
Oct 24
Waning Gibbous
Oct 26
Last Quarter
Nov 3
New
Nov 10
First Quarter
Nov 17
Full

Hourly Weather History & Observations

Time (EDT) Temp. Windchill Dew Point Humidity Pressure Visibility Wind Dir Wind Speed Gust Speed Precip Events Conditions
12:17 AM 37.4 °F 29.3 °F 33.8 °F 87% 29.94 in 10.0 mi WSW 12.7 mph 18.4 mph N/A   Overcast
12:53 AM 37.0 °F 30.4 °F 34.0 °F 89% 29.97 in 10.0 mi West 9.2 mph - N/A   Overcast
1:21 AM 37.4 °F 32.1 °F 33.8 °F 87% 29.94 in 10.0 mi West 6.9 mph - N/A   Overcast
1:53 AM 37.0 °F 30.4 °F 33.1 °F 86% 29.98 in 10.0 mi West 9.2 mph - N/A   Overcast
2:53 AM 36.0 °F 29.6 °F 33.1 °F 89% 29.98 in 10.0 mi WSW 8.1 mph - N/A   Overcast
3:53 AM 36.0 °F 28.0 °F 33.1 °F 89% 29.99 in 10.0 mi WSW 11.5 mph - N/A   Overcast
4:53 AM 35.1 °F 28.6 °F 30.9 °F 85% 30.00 in 10.0 mi WSW 8.1 mph - N/A   Mostly Cloudy
5:53 AM 35.1 °F 27.4 °F 30.9 °F 85% 30.01 in 10.0 mi WSW 10.4 mph - N/A   Overcast
6:53 AM 35.1 °F 30.1 °F 30.9 °F 85% 30.03 in 10.0 mi WSW 5.8 mph - N/A   Overcast
7:53 AM 34.0 °F 28.0 °F 30.9 °F 89% 30.04 in 9.0 mi WSW 6.9 mph - N/A   Mostly Cloudy
8:53 AM 35.1 °F 28.6 °F 30.9 °F 85% 30.06 in 10.0 mi West 8.1 mph - N/A   Partly Cloudy
9:53 AM 36.0 °F 28.0 °F 30.0 °F 79% 30.07 in 10.0 mi West 11.5 mph - N/A   Partly Cloudy
10:23 AM 37.4 °F 29.8 °F 30.2 °F 75% 30.04 in 10.0 mi WSW 11.5 mph - N/A   Mostly Cloudy
10:53 AM 39.0 °F 30.6 °F 28.9 °F 67% 30.08 in 10.0 mi West 15.0 mph 21.9 mph N/A   Mostly Cloudy
11:53 AM 39.9 °F 32.1 °F 28.0 °F 63% 30.08 in 10.0 mi WSW 13.8 mph 23.0 mph 0.01 in   Mostly Cloudy
12:53 PM 41.0 °F 34.7 °F 28.0 °F 60% 30.07 in 10.0 mi West 10.4 mph - N/A   Overcast
1:53 PM 44.1 °F 37.1 °F 28.0 °F 53% 30.06 in 10.0 mi WSW 15.0 mph 27.6 mph N/A   Mostly Cloudy
2:53 PM 39.9 °F 33.9 °F 28.0 °F 63% 30.07 in 10.0 mi West 9.2 mph - N/A   Overcast
3:53 PM 41.0 °F 34.7 °F 28.0 °F 60% 30.08 in 10.0 mi WSW 10.4 mph 17.3 mph N/A   Overcast
4:53 PM 42.1 °F 37.1 °F 25.0 °F 51% 30.08 in 10.0 mi WNW 8.1 mph 19.6 mph N/A   Scattered Clouds
5:53 PM 37.9 °F 32.1 °F 28.0 °F 68% 30.11 in 10.0 mi West 8.1 mph - N/A   Partly Cloudy
6:53 PM 37.0 °F 33.3 °F 30.0 °F 76% 30.14 in 10.0 mi SW 4.6 mph - N/A   Scattered Clouds
7:53 PM 37.0 °F - 30.0 °F 76% 30.16 in 10.0 mi Calm Calm - N/A   Overcast
8:53 PM 36.0 °F 33.3 °F 30.0 °F 79% 30.17 in 10.0 mi WSW 3.5 mph - N/A   Overcast
9:53 PM 35.1 °F 31.0 °F 30.0 °F 82% 30.18 in 10.0 mi WSW 4.6 mph - N/A   Scattered Clouds
10:53 PM 35.1 °F 29.3 °F 30.0 °F 82% 30.18 in 10.0 mi WSW 6.9 mph - N/A   Clear
11:53 PM 34.0 °F 28.0 °F 28.9 °F 82% 30.19 in 10.0 mi WSW 6.9 mph - N/A   Clear